TimeMDT,TemperatureF,Dew PointF,Humidity,Sea Level PressureIn,VisibilityMPH,Wind Direction,Wind SpeedMPH,Gust SpeedMPH,PrecipitationIn,Events,Conditions,WindDirDegrees,DateUTC
12:16 AM,55.4,51.8,88,30.36,10.0,Calm,Calm,-,N/A,,Clear,0,2013-08-28 06:16:00
12:36 AM,53.6,50.0,88,30.36,10.0,Calm,Calm,-,N/A,,Clear,0,2013-08-28 06:36:00
12:56 AM,53.6,50.0,88,30.36,10.0,Calm,Calm,-,N/A,,Clear,0,2013-08-28 06:56:00
1:16 AM,53.6,50.0,88,30.36,10.0,Calm,Calm,-,N/A,,Clear,0,2013-08-28 07:16:00
1:36 AM,53.6,50.0,88,30.36,10.0,Calm,Calm,-,N/A,,Clear,0,2013-08-28 07:36:00
1:56 AM,53.6,50.0,88,30.36,10.0,Calm,Calm,-,N/A,,Clear,0,2013-08-28 07:56:00
2:16 AM,53.6,50.0,88,30.37,10.0,Calm,Calm,-,N/A,,Clear,0,2013-08-28 08:16:00
2:36 AM,53.6,50.0,88,30.37,10.0,Calm,Calm,-,N/A,,Clear,0,2013-08-28 08:36:00
2:56 AM,51.8,46.4,82,30.37,10.0,Calm,Calm,-,N/A,,Clear,0,2013-08-28 08:56:00
3:16 AM,51.8,48.2,88,30.37,10.0,Calm,Calm,-,N/A,,Clear,0,2013-08-28 09:16:00
3:36 AM,51.8,46.4,82,30.38,10.0,Calm,Calm,-,N/A,,Clear,0,2013-08-28 09:36:00
3:56 AM,50.0,44.6,82,30.38,10.0,East,3.5,-,N/A,,Clear,90,2013-08-28 09:56:00
4:16 AM,50.0,46.4,87,30.38,10.0,Calm,Calm,-,N/A,,Clear,0,2013-08-28 10:16:00
4:36 AM,50.0,44.6,82,30.37,10.0,Calm,Calm,-,N/A,,Clear,0,2013-08-28 10:36:00
4:56 AM,50.0,44.6,82,30.38,10.0,Calm,Calm,-,N/A,,Scattered Clouds,0,2013-08-28 10:56:00
5:16 AM,50.0,46.4,87,30.38,10.0,Calm,Calm,-,N/A,,Clear,0,2013-08-28 11:16:00
5:35 AM,50.0,46.4,87,30.38,10.0,Calm,Calm,-,N/A,,Clear,0,2013-08-28 11:35:00
5:56 AM,50.0,46.4,87,30.38,10.0,Calm,Calm,-,N/A,,Clear,0,2013-08-28 11:56:00
6:16 AM,48.2,44.6,87,30.39,10.0,Calm,Calm,-,N/A,,Clear,0,2013-08-28 12:16:00
6:36 AM,46.4,44.6,93,30.40,10.0,Calm,Calm,-,N/A,,Clear,0,2013-08-28 12:36:00
6:56 AM,46.4,42.8,87,30.40,7.0,Calm,Calm,-,N/A,,Clear,0,2013-08-28 12:56:00
7:16 AM,48.2,44.6,87,30.40,2.0,Calm,Calm,-,N/A,,Clear,0,2013-08-28 13:16:00
7:36 AM,50.0,46.4,87,30.40,5.0,Calm,Calm,-,N/A,,Clear,0,2013-08-28 13:36:00
7:56 AM,50.0,46.4,87,30.41,10.0,Calm,Calm,-,N/A,,Clear,0,2013-08-28 13:56:00
8:16 AM,53.6,48.2,82,30.41,10.0,Calm,Calm,-,N/A,,Clear,0,2013-08-28 14:16:00
8:36 AM,55.4,50.0,82,30.41,10.0,Calm,Calm,-,N/A,,Mostly Cloudy,0,2013-08-28 14:36:00
8:56 AM,57.2,48.2,72,30.41,10.0,Calm,Calm,-,N/A,,Overcast,0,2013-08-28 14:56:00
9:15 AM,59.0,50.0,72,30.40,10.0,Calm,Calm,-,N/A,,Mostly Cloudy,0,2013-08-28 15:15:00
9:36 AM,60.8,48.2,63,30.41,10.0,Calm,Calm,-,N/A,,Mostly Cloudy,0,2013-08-28 15:36:00
9:56 AM,62.6,48.2,59,30.40,10.0,Calm,Calm,-,N/A,,Scattered Clouds,0,2013-08-28 15:56:00
10:16 AM,62.6,50.0,63,30.40,10.0,Calm,Calm,-,N/A,,Clear,0,2013-08-28 16:16:00
10:35 AM,66.2,50.0,56,30.39,10.0,Calm,Calm,-,N/A,,Clear,0,2013-08-28 16:35:00
10:56 AM,69.8,50.0,49,30.39,10.0,Calm,Calm,-,N/A,,Clear,0,2013-08-28 16:56:00
11:16 AM,69.8,50.0,49,30.38,10.0,Calm,Calm,-,N/A,,Scattered Clouds,0,2013-08-28 17:16:00
11:36 AM,71.6,48.2,43,30.38,10.0,West,3.5,-,N/A,,Clear,260,2013-08-28 17:36:00
11:56 AM,73.4,44.6,36,30.37,10.0,Calm,Calm,-,N/A,,Clear,0,2013-08-28 17:56:00
12:16 PM,77.0,42.8,29,30.36,10.0,NE,3.5,-,N/A,,Clear,40,2013-08-28 18:16:00
12:36 PM,77.0,39.2,26,30.34,10.0,Calm,Calm,-,N/A,,Clear,0,2013-08-28 18:36:00
12:56 PM,78.8,41.0,26,30.33,10.0,West,3.5,-,N/A,,Clear,280,2013-08-28 18:56:00
1:16 PM,80.6,42.8,26,30.32,10.0,South,4.6,-,N/A,,Clear,190,2013-08-28 19:16:00
1:36 PM,80.6,41.0,24,30.32,10.0,Calm,Calm,-,N/A,,Clear,0,2013-08-28 19:36:00
1:56 PM,82.4,39.2,21,30.31,10.0,SSE,3.5,-,N/A,,Clear,160,2013-08-28 19:56:00
2:16 PM,84.2,35.6,18,30.31,10.0,NNW,6.9,-,N/A,Thunderstorm,Thunderstorm,340,2013-08-28 20:16:00
2:36 PM,84.2,35.6,18,30.30,10.0,Calm,Calm,-,N/A,Thunderstorm,Thunderstorm,0,2013-08-28 20:36:00
2:56 PM,89.6,37.4,16,30.29,10.0,North,6.9,-,N/A,,Mostly Cloudy,360,2013-08-28 20:56:00
3:16 PM,80.6,41.0,24,30.29,10.0,SSW,10.4,-,N/A,,Mostly Cloudy,200,2013-08-28 21:16:00
3:36 PM,80.6,41.0,24,30.28,10.0,South,9.2,-,N/A,Rain,Light Rain,190,2013-08-28 21:36:00
3:55 PM,78.8,35.6,21,30.29,10.0,SW,8.1,-,N/A,,Mostly Cloudy,220,2013-08-28 21:55:00
4:16 PM,77.0,39.2,26,30.29,10.0,SSW,9.2,-,N/A,Thunderstorm,Thunderstorm,200,2013-08-28 22:16:00
4:36 PM,73.4,42.8,33,30.31,10.0,SW,3.5,-,N/A,Thunderstorm,Thunderstorm,230,2013-08-28 22:36:00
4:56 PM,73.4,44.6,36,30.32,10.0,West,8.1,-,N/A,Thunderstorm,Scattered Clouds,260,2013-08-28 22:56:00
5:16 PM,69.8,51.8,53,30.33,10.0,WSW,6.9,-,N/A,Rain-Thunderstorm,Light Thunderstorms and Rain,240,2013-08-28 23:16:00
5:36 PM,69.8,57.2,64,30.35,10.0,SSE,8.1,-,0.01,Rain-Thunderstorm,Thunderstorms and Rain,150,2013-08-28 23:36:00
5:56 PM,64.4,50.0,59,30.34,10.0,East,5.8,18.4,0.04,Rain-Thunderstorm,Light Thunderstorms and Rain,90,2013-08-28 23:56:00
6:16 PM,64.4,51.8,64,30.38,10.0,WSW,11.5,18.4,N/A,Rain,Rain,240,2013-08-29 00:16:00
6:36 PM,59.0,50.0,72,30.39,10.0,WSW,17.3,26.5,N/A,,Light Drizzle,250,2013-08-29 00:36:00
6:56 PM,60.8,50.0,68,30.39,10.0,SW,3.5,-,N/A,Rain-Thunderstorm,Rain,230,2013-08-29 00:56:00
7:16 PM,60.8,48.2,63,30.40,10.0,SW,10.4,-,N/A,Rain,Light Rain,220,2013-08-29 01:16:00
7:36 PM,60.8,50.0,68,30.42,10.0,East,11.5,19.6,0.02,Rain,Light Rain,90,2013-08-29 01:36:00
7:56 PM,60.8,50.0,68,30.44,10.0,ENE,5.8,-,0.04,Rain,Rain,60,2013-08-29 01:56:00
8:16 PM,59.0,51.8,77,30.43,10.0,NE,8.1,-,0.02,Rain,Light Rain,50,2013-08-29 02:16:00
8:36 PM,59.0,51.8,77,30.42,10.0,NE,8.1,-,0.03,,Overcast,40,2013-08-29 02:36:00
8:56 PM,59.0,51.8,77,30.42,10.0,SE,5.8,-,0.03,,Drizzle,130,2013-08-29 02:56:00
9:15 PM,59.0,50.0,72,30.42,10.0,SSW,10.4,-,N/A,,Overcast,210,2013-08-29 03:15:00
9:36 PM,59.0,50.0,72,30.43,10.0,Calm,Calm,-,N/A,,Overcast,0,2013-08-29 03:36:00
9:56 PM,60.8,50.0,68,30.43,10.0,West,3.5,-,N/A,,Overcast,270,2013-08-29 03:56:00
10:16 PM,59.0,50.0,72,30.43,10.0,SSE,3.5,-,N/A,,Overcast,160,2013-08-29 04:16:00
10:36 PM,59.0,51.8,77,30.44,10.0,Calm,Calm,-,N/A,,Mostly Cloudy,0,2013-08-29 04:36:00
10:56 PM,59.0,51.8,77,30.43,10.0,Calm,Calm,-,N/A,,Scattered Clouds,0,2013-08-29 04:56:00
11:16 PM,57.2,51.8,82,30.43,10.0,NNE,4.6,-,N/A,,Scattered Clouds,30,2013-08-29 05:16:00
11:36 PM,55.4,51.8,88,30.42,10.0,ENE,3.5,-,N/A,,Clear,60,2013-08-29 05:36:00
11:56 PM,55.4,50.0,82,30.42,10.0,WSW,6.9,-,N/A,,Clear,240,2013-08-29 05:56:00